Fryeburg, ME

12:18 PM EDT on May 25, 2017 (GMT -0400)
Eastern Slopes Regional

Weather History for KIZG - November, 2010

Change the Weather History Date:

Thursday, November 4, 2010

  Actual Average Record
Temperature  
Mean Temperature 32 °F -  
Max Temperature 42 °F 48 °F 64 °F (2008)
Min Temperature 21 °F 28 °F 14 °F (2002)
Degree Days  
Heating Degree Days 34    
Moisture  
Dew Point 33 °F    
Average Humidity 97    
Maximum Humidity 100    
Minimum Humidity 92    
Precipitation  
Precipitation 1.06 in - - ()
Sea Level Pressure  
Sea Level Pressure 29.84 in    
Wind  
Wind Speed 2 mph (NNW)    
Max Wind Speed 10 mph    
Max Gust Speed -    
Visibility 5 miles    
Events Rain    
Averages and records for this station are not official NWS values.
T = Trace of Precipitation, MM = Missing Value Source: NWS Daily Summary

Daily Weather History Graph

Daily Weather History Graph

Search for Another Location

Airport or City:

Trip Planner

Search our weather history database for the weather conditions in past years. The results will help you decide how hot, cold, wet, or windy it might be!

Date:

Astronomy

Nov. 04, 2010 Rise Set
Actual Time 7:24 AM EDT 5:30 PM EDT
Civil Twilight 6:53 AM EDT 6:00 PM EDT
Nautical Twilight 6:19 AM EDT 6:34 PM EDT
Astronomical Twilight 5:45 AM EDT 7:08 PM EDT
Moon 5:30 AM EDT (11/4) 4:13 PM EDT (11/4)
Length of Visible Light 11h 06m
Length of Day
10h 05m
Waning Crescent, 3% of the Moon is Illuminated
Nov 4
Waning Crescent
Nov 6
New
Nov 13
First Quarter
Nov 21
Full
Nov 28
Last Quarter

Hourly Weather History & Observations

Time (EDT) Temp. Windchill Dew Point Humidity Pressure Visibility Wind Dir Wind Speed Gust Speed Precip Events Conditions
12:54 AM 21.0 °F - 19.9 °F 96% 30.04 in 10.0 mi Calm Calm - N/A   Clear
1:54 AM 21.0 °F - 19.9 °F 96% 30.01 in 10.0 mi Calm Calm - N/A   Clear
2:54 AM 21.9 °F - 19.9 °F 92% 30.01 in 10.0 mi Calm Calm - N/A   Clear
3:54 AM 21.9 °F - 21.0 °F 96% 29.99 in 10.0 mi Calm Calm - N/A   Clear
4:21 AM 21.2 °F - 19.4 °F 93% 29.98 in 2.0 mi Calm Calm - N/A   Partly Cloudy
4:23 AM 21.2 °F - 19.4 °F 93% 29.98 in 1.2 mi Calm Calm - N/A   Scattered Clouds
4:32 AM 21.2 °F - 21.2 °F 100% 29.98 in 1.8 mi Calm Calm - N/A   Mostly Cloudy
4:35 AM 21.2 °F - 21.2 °F 100% 29.97 in 3.0 mi Calm Calm - N/A   Mostly Cloudy
4:54 AM 23.0 °F - 21.9 °F 96% 29.99 in 10.0 mi Calm Calm - N/A   Overcast
5:12 AM 24.8 °F - 24.8 °F 100% 29.97 in 10.0 mi Calm Calm - N/A   Overcast
5:54 AM 25.0 °F - 24.1 °F 96% 29.99 in 10.0 mi Calm Calm - N/A   Partly Cloudy
6:54 AM 27.0 °F - 26.1 °F 96% 29.98 in 10.0 mi Calm Calm - N/A   Overcast
7:54 AM 28.0 °F - 27.0 °F 96% 29.99 in 10.0 mi Calm Calm - N/A   Mostly Cloudy
8:54 AM 30.0 °F - 28.0 °F 92% 30.00 in 10.0 mi Calm Calm - N/A   Overcast
9:54 AM 30.9 °F - 30.0 °F 96% 29.99 in 9.0 mi Calm Calm - 0.00 in   Overcast
10:18 AM 32.0 °F - 30.2 °F 93% 29.96 in 8.0 mi Calm Calm - 0.00 in Rain Light Freezing Rain
10:54 AM 32.0 °F - 30.9 °F 96% 29.96 in 4.0 mi Calm Calm - 0.01 in   Overcast
11:10 AM 33.8 °F - 32.0 °F 93% 29.94 in 7.0 mi Calm Calm - 0.01 in   Overcast
11:54 AM 34.0 °F - 33.1 °F 96% 29.94 in 9.0 mi Calm Calm - 0.01 in   Overcast
12:14 PM 33.8 °F - 33.8 °F 100% 29.91 in 8.0 mi Calm Calm - 0.00 in Rain Light Rain
12:24 PM 33.8 °F - 33.8 °F 100% 29.91 in 7.0 mi Calm Calm - 0.00 in Rain Light Rain
12:54 PM 35.1 °F - 34.0 °F 96% 29.91 in 5.0 mi Calm Calm - 0.02 in Rain Light Rain
1:13 PM 35.6 °F - 33.8 °F 93% 29.88 in 5.0 mi Calm Calm - 0.01 in Rain Light Rain
1:30 PM 35.6 °F - 35.6 °F 100% 29.87 in 4.0 mi Calm Calm - 0.03 in Rain Light Rain
1:54 PM 36.0 °F - 35.1 °F 97% 29.87 in 4.0 mi Calm Calm - 0.05 in Rain Light Rain
2:44 PM 37.4 °F 33.8 °F 37.4 °F 100% 29.84 in 1.8 mi NNW 4.6 mph - 0.11 in Rain Rain
2:48 PM 37.4 °F 32.8 °F 37.4 °F 100% 29.84 in 2.0 mi North 5.8 mph - 0.12 in Rain Rain
2:54 PM 37.0 °F 31.6 °F 37.0 °F 100% 29.85 in 2.5 mi North 6.9 mph - 0.14 in Rain Rain
3:32 PM 37.4 °F 33.8 °F 37.4 °F 100% 29.83 in 2.5 mi North 4.6 mph - 0.09 in Rain Rain
3:45 PM 37.4 °F 33.8 °F 37.4 °F 100% 29.82 in 2.5 mi NNW 4.6 mph - 0.11 in Rain Light Rain
3:54 PM 37.9 °F 33.5 °F 37.9 °F 100% 29.83 in 2.5 mi North 5.8 mph - 0.13 in Rain Light Rain
3:58 PM 37.4 °F 32.8 °F 37.4 °F 100% 29.80 in 3.0 mi North 5.8 mph - 0.00 in Rain Light Rain
4:08 PM 39.2 °F 34.2 °F 37.4 °F 93% 29.79 in 3.0 mi North 6.9 mph - 0.02 in Rain Rain
4:43 PM 39.2 °F 32.5 °F 37.4 °F 93% 29.78 in 3.0 mi North 10.4 mph - 0.09 in Rain Rain
4:54 PM 39.0 °F 32.8 °F 37.9 °F 96% 29.80 in 3.0 mi North 9.2 mph - 0.12 in Rain Rain
5:03 PM 39.2 °F 33.6 °F 37.4 °F 93% 29.77 in 2.5 mi North 8.1 mph - 0.03 in Rain Rain
5:21 PM 37.4 °F 30.3 °F 37.4 °F 100% 29.75 in 3.0 mi North 10.4 mph - 0.08 in Rain Rain
5:54 PM 37.9 °F 32.1 °F 37.9 °F 100% 29.74 in 8.0 mi North 8.1 mph - 0.12 in Rain Light Rain
6:54 PM 39.0 °F 33.4 °F 37.9 °F 96% 29.71 in 3.0 mi North 8.1 mph - 0.09 in Rain Light Rain
7:01 PM 39.2 °F 33.6 °F 37.4 °F 93% 29.68 in 5.0 mi North 8.1 mph - 0.00 in Rain Light Rain
7:12 PM 39.2 °F 34.2 °F 37.4 °F 93% 29.68 in 4.0 mi NNW 6.9 mph - 0.01 in Rain Light Rain
7:54 PM 37.9 °F 32.7 °F 37.9 °F 100% 29.67 in 3.0 mi North 6.9 mph - 0.08 in Rain Rain
8:54 PM 39.0 °F 34.0 °F 39.0 °F 100% 29.62 in 6.0 mi NNW 6.9 mph - 0.10 in Rain Light Rain
9:50 PM 41.0 °F 38.0 °F 39.2 °F 93% 29.59 in 2.5 mi NW 4.6 mph - 0.05 in Rain Rain
9:54 PM 41.0 °F 39.0 °F 41.0 °F 100% 29.61 in 2.5 mi NNW 3.5 mph - 0.05 in Rain Light Rain
10:02 PM 41.0 °F 36.4 °F 41.0 °F 100% 29.59 in 3.0 mi NNW 6.9 mph - 0.02 in Rain Light Rain
10:38 PM 42.8 °F 39.3 °F 41.0 °F 93% 29.56 in 4.0 mi North 5.8 mph - 0.07 in Rain Rain
10:54 PM 42.1 °F 40.2 °F 41.0 °F 96% 29.58 in 6.0 mi NNW 3.5 mph - 0.09 in Rain Light Rain
11:54 PM 42.1 °F 39.2 °F 41.0 °F 96% 29.54 in 10.0 mi Variable 4.6 mph - 0.05 in Rain Light Rain